Fort Knox, KY

1:42 AM EDT on October 19, 2017 (GMT -0400)
Godman Army Air Field

Weather History for KFTK - January, 2013

Change the Weather History Date:

Tuesday, January 8, 2013

  Actual Average Record
Temperature  
Mean Temperature 38 °F -  
Max Temperature 53 °F 41 °F 67 °F (2008)
Min Temperature 22 °F 24 °F 0 °F (2015)
Degree Days  
Heating Degree Days 28    
Moisture  
Dew Point 29 °F    
Average Humidity 71    
Maximum Humidity 89    
Minimum Humidity 45    
Precipitation  
Precipitation 0.00 in - - ()
Sea Level Pressure  
Sea Level Pressure 30.27 in    
Wind  
Wind Speed 3 mph (South)    
Max Wind Speed 17 mph    
Max Gust Speed 22 mph    
Visibility 10 miles    
Events      
Averages and records for this station are not official NWS values.
T = Trace of Precipitation, MM = Missing Value Source: NWS Daily Summary

Daily Weather History Graph

Daily Weather History Graph

Search for Another Location

Airport or City:

Trip Planner

Search our weather history database for the weather conditions in past years. The results will help you decide how hot, cold, wet, or windy it might be!

Date:

Astronomy

Jan. 08, 2013 Rise Set
Actual Time 7:59 AM EST 5:41 PM EST
Civil Twilight 7:30 AM EST 6:10 PM EST
Nautical Twilight 6:58 AM EST 6:43 PM EST
Astronomical Twilight 6:26 AM EST 7:15 PM EST
Moon 4:32 AM EST (1/8) 2:43 PM EST (1/8)
Length of Visible Light 10h 40m
Length of Day
9h 41m
Waning Crescent, 14% of the Moon is Illuminated
Jan 8
Waning Crescent
Jan 11
New
Jan 18
First Quarter
Jan 26
Full
Feb 3
Last Quarter

Hourly Weather History & Observations

Time (EST) Temp. Windchill Dew Point Humidity Pressure Visibility Wind Dir Wind Speed Gust Speed Precip Events Conditions
12:55 AM 24.6 °F - 21.7 °F 89% 30.26 in 10.0 mi Calm Calm - N/A   Clear
1:55 AM 22.6 °F - 19.4 °F 87% 30.27 in 10.0 mi Calm Calm - N/A   Clear
2:55 AM 23.5 °F - 19.9 °F 86% 30.27 in 10.0 mi Calm Calm - N/A   Clear
3:55 AM 23.7 °F - 20.7 °F 88% 30.27 in 10.0 mi Calm Calm - N/A   Clear
4:55 AM 24.3 °F 19.9 °F 21.2 °F 88% 30.27 in 10.0 mi East 3.5 mph - N/A   Clear
5:55 AM 25.3 °F - 21.4 °F 85% 30.28 in 10.0 mi Calm Calm - N/A   Mostly Cloudy
6:55 AM 27.1 °F 23.2 °F 23.0 °F 84% 30.28 in 10.0 mi SE 3.5 mph - N/A   Partly Cloudy
7:55 AM 26.6 °F - 23.0 °F 86% 30.31 in 10.0 mi Calm Calm - N/A   Clear
8:55 AM 27.9 °F 24.0 °F 24.1 °F 86% 30.33 in 10.0 mi South 3.5 mph - N/A   Clear
9:55 AM 38.5 °F 32.7 °F 30.9 °F 74% 30.33 in 10.0 mi South 8.1 mph - N/A   Clear
10:55 AM 44.1 °F 37.7 °F 31.3 °F 61% 30.33 in 10.0 mi South 12.7 mph - N/A   Clear
11:55 AM 46.4 °F 41.5 °F 32.0 °F 57% 30.31 in 10.0 mi South 10.4 mph - N/A   Clear
12:55 PM 51.4 °F - 33.3 °F 50% 30.28 in 10.0 mi South 17.3 mph 21.9 mph N/A   Clear
1:55 PM 53.1 °F - 33.1 °F 47% 30.25 in 10.0 mi SSW 12.7 mph 19.6 mph N/A   Clear
2:55 PM 53.8 °F - 33.1 °F 45% 30.25 in 10.0 mi SSW 12.7 mph - N/A   Clear
3:55 PM 53.1 °F - 33.8 °F 48% 30.25 in 10.0 mi SSW 11.5 mph - N/A   Clear
4:55 PM 51.8 °F - 33.4 °F 50% 30.25 in 10.0 mi SSW 6.9 mph - N/A   Clear
5:55 PM 47.1 °F - 32.7 °F 57% 30.24 in 10.0 mi Calm Calm - N/A   Clear
6:55 PM 42.8 °F - 32.2 °F 66% 30.25 in 10.0 mi Calm Calm - N/A   Clear
7:55 PM 41.5 °F - 32.5 °F 70% 30.25 in 10.0 mi Calm Calm - N/A   Clear
8:55 PM 39.9 °F - 32.4 °F 74% 30.24 in 10.0 mi Calm Calm - N/A   Overcast
9:55 PM 40.5 °F - 32.9 °F 74% 30.23 in 10.0 mi Calm Calm - N/A   Clear
10:55 PM 41.2 °F 39.2 °F 33.3 °F 73% 30.24 in 10.0 mi SE 3.5 mph - N/A   Clear
11:55 PM 43.7 °F - 33.6 °F 68% 30.23 in 10.0 mi Calm Calm - N/A   Clear